EW4633 Weather Reports


Display with metric or nautical units.
time (UTC)temp
F
wind
direction
speed
MPH
gust
MPH
rain 1hr
in
rain 24hr
in
rain mn
in
humidity
%
barometer
mb
20260507165622 56 310 3.0 7.0 0.00 0.00 0.00 45 1012.5
20260507165116 57 24 3.0 6.0 0.00 0.00 0.00 47 1012.5
20260507164609 56 294 3.0 8.0 0.00 0.00 0.00 46 1012.5
20260507164104 56 17 4.0 9.0 0.00 0.00 0.00 48 1012.4
20260507163558 56 0 4.0 9.0 0.00 0.00 0.00 45 1012.5
20260507163313 56 324 4.0 9.0 0.00 0.00 0.00 45 1012.5
20260507162547 56 322 4.0 9.0 0.00 0.00 0.00 46 1012.6
20260507162040 56 31 4.0 8.0 0.00 0.00 0.00 46 1012.4
20260507161534 55 10 4.0 9.0 0.00 0.00 0.00 45 1012.5
20260507161028 55 33 3.0 9.0 0.00 0.00 0.00 45 1012.6
20260507160743 56 311 3.0 6.0 0.00 0.00 0.00 46 1012.6
20260507160016 55 15 3.0 9.0 0.00 0.00 0.00 46 1012.6
20260507155510 55 341 3.0 9.0 0.00 0.00 0.00 47 1012.6
20260507155004 55 308 2.0 7.0 0.00 0.00 0.00 49 1012.6
20260507154457 55 343 3.0 7.0 0.00 0.00 0.00 52 1012.5
20260507153952 54 13 3.0 7.0 0.00 0.00 0.00 49 1012.5
20260507153446 54 24 3.0 7.0 0.00 0.00 0.00 49 1012.5
20260507152940 54 352 3.0 5.0 0.00 0.00 0.00 48 1012.5
20260507152434 54 8 3.0 9.0 0.00 0.00 0.00 51 1012.5
20260507151928 54 0 3.0 9.0 0.00 0.00 0.00 48 1012.5
20260507151648 54 328 2.0 8.0 0.00 0.00 0.00 50 1012.5
20260507151139 54 303 2.0 6.0 0.00 0.00 0.00 54 1012.6
20260507150409 53 301 3.0 6.0 0.00 0.00 0.00 50 1012.6
20260507145904 53 49 3.0 8.0 0.00 0.00 0.00 51 1012.5
20260507145359 53 33 2.0 8.0 0.00 0.00 0.00 51 1012.5
20260507144852 54 310 1.0 6.0 0.00 0.00 0.00 51 1012.5
20260507144346 54 302 1.0 5.0 0.00 0.00 0.00 54 1012.5
20260507143840 53 356 2.0 6.0 0.00 0.00 0.00 53 1012.5
20260507143333 52 230 2.0 7.0 0.00 0.00 0.00 52 1012.5
20260507142828 52 15 3.0 7.0 0.00 0.00 0.00 52 1012.5
20260507142322 52 57 4.0 9.0 0.00 0.00 0.00 51 1012.6
20260507141815 52 346 4.0 9.0 0.00 0.00 0.00 48 1012.6
20260507141310 52 337 3.0 13.0 0.00 0.00 0.00 49 1012.7
20260507140804 52 262 2.0 13.0 0.00 0.00 0.00 51 1012.7
20260507140257 52 317 2.0 6.0 0.00 0.00 0.00 53 1012.7
20260507140018 52 282 2.0 5.0 0.00 0.00 0.00 52 1012.6
20260507135245 51 293 3.0 5.0 0.00 0.00 0.00 51 1012.6
20260507135226 51 337 2.0 7.0 0.00 0.00 0.00 55 1012.5
20260507134233 51 332 2.0 7.0 0.00 0.00 0.00 53 1012.6
20260507133729 51 330 2.0 7.0 0.00 0.00 0.00 54 1012.6
20260507133222 51 33 2.0 7.0 0.00 0.00 0.00 54 1012.6
20260507132716 51 14 2.0 6.0 0.00 0.00 0.00 56 1012.5
20260507132210 50 22 2.0 9.0 0.00 0.00 0.00 55 1012.5
20260507131704 50 325 2.0 9.0 0.00 0.00 0.00 58 1012.6
20260507131640 50 26 2.0 8.0 0.00 0.00 0.00 57 1012.6
20260507130652 50 3 1.0 5.0 0.00 0.00 0.00 62 1012.5
20260507130146 49 23 2.0 5.0 0.00 0.00 0.00 64 1012.4
20260507125903 49 31 2.0 5.0 0.00 0.00 0.00 65 1012.5
20260507125133 49 334 2.0 5.0 0.00 0.00 0.00 64 1012.5
20260507125111 48 42 1.0 4.0 0.00 0.00 0.00 66 1012.5
20260507124121 48 24 1.0 4.0 0.00 0.00 0.00 67 1012.4
20260507123616 47 36 1.0 3.0 0.00 0.00 0.00 69 1012.5
20260507123109 47 8 1.0 3.0 0.00 0.00 0.00 70 1012.6
20260507122604 46 306 1.0 3.0 0.00 0.00 0.00 70 1012.7
20260507122057 46 309 1.0 3.0 0.00 0.00 0.00 73 1012.6
20260507121552 45 29 1.0 3.0 0.00 0.00 0.00 74 1012.6
20260507121046 45 29 1.0 3.0 0.00 0.00 0.00 78 1012.5
20260507120540 44 22 1.0 3.0 0.00 0.00 0.00 77 1012.5
20260507120034 44 354 1.0 2.0 0.00 0.00 0.00 77 1012.5
20260507115528 44 344 1.0 2.0 0.00 0.00 0.00 77 1012.5
20260507115021 44 349 1.0 2.0 0.00 0.00 0.00 76 1012.5
20260507114516 44 318 0.0 2.0 0.00 0.00 0.00 75 1012.5
20260507114233 43 355 1.0 3.0 0.00 0.00 0.00 76 1012.5
20260507113731 43 315 1.0 3.0 0.00 0.00 0.00 74 1012.5
20260507112957 43 346 1.0 2.0 0.00 0.00 0.00 74 1012.5
20260507112458 43 318 1.0 3.0 0.00 0.00 0.00 73 1012.5
20260507111954 43 22 1.0 3.0 0.00 0.00 0.00 73 1012.5
20260507111453 43 356 1.0 3.0 0.00 0.00 0.00 73 1012.4
20260507110953 43 21 1.0 3.0 0.00 0.00 0.00 73 1012.4
20260507110454 43 13 1.0 3.0 0.00 0.00 0.00 73 1012.3
20260507105951 43 340 1.0 5.0 0.00 0.00 0.00 73 1012.2
20260507105713 43 333 1.0 5.0 0.00 0.00 0.00 73 1012.1
20260507104950 43 19 1.0 3.0 0.00 0.00 0.00 73 1012.1
20260507104449 43 10 2.0 4.0 0.00 0.00 0.00 73 1012.1
20260507103948 43 357 1.0 4.0 0.00 0.00 0.00 73 1011.9
20260507103449 43 337 2.0 5.0 0.00 0.00 0.00 73 1011.9
20260507102949 43 347 2.0 5.0 0.00 0.00 0.00 73 1011.9
20260507102449 44 0 2.0 3.0 0.00 0.00 0.00 73 1011.9
20260507101950 44 287 2.0 5.0 0.00 0.00 0.00 72 1011.9
20260507101446 44 2 2.0 5.0 0.00 0.00 0.00 72 1011.9
20260507100944 44 356 2.0 5.0 0.00 0.00 0.00 72 1012.0
20260507100446 44 22 2.0 4.0 0.00 0.00 0.00 73 1011.9
20260507095945 44 15 2.0 5.0 0.00 0.00 0.00 72 1011.9
20260507095444 44 2 2.0 5.0 0.00 0.00 0.00 72 1011.9
20260507094944 44 0 3.0 6.0 0.00 0.00 0.00 72 1011.9
20260507094446 44 350 3.0 6.0 0.00 0.00 0.00 72 1011.9
20260507093945 44 11 3.0 5.0 0.00 0.00 0.00 72 1011.9
20260507093446 44 30 3.0 6.0 0.00 0.00 0.00 72 1011.9
20260507092941 44 17 2.0 6.0 0.00 0.00 0.00 73 1011.9
20260507092442 44 28 3.0 7.0 0.00 0.00 0.00 73 1011.9
20260507091942 44 17 3.0 7.0 0.00 0.00 0.00 73 1011.9
20260507091442 45 358 3.0 8.0 0.00 0.00 0.00 73 1011.8
20260507090941 45 2 3.0 8.0 0.00 0.00 0.00 73 1011.8
20260507090658 45 311 2.0 6.0 0.00 0.00 0.00 73 1011.7
20260507085942 45 340 2.0 6.0 0.00 0.00 0.00 73 1011.7
20260507085441 45 331 2.0 5.0 0.00 0.00 0.00 73 1011.7
20260507084941 45 21 2.0 5.0 0.00 0.00 0.00 73 1011.7
20260507084438 45 26 2.0 6.0 0.00 0.00 0.00 73 1011.6
20260507083937 45 9 2.0 6.0 0.00 0.00 0.00 73 1011.5
20260507083438 45 357 2.0 5.0 0.00 0.00 0.00 74 1011.5
20260507082938 45 2 2.0 5.0 0.00 0.00 0.00 74 1011.4
20260507082437 45 4 2.0 5.0 0.00 0.00 0.00 75 1011.4
20260507081934 45 6 2.0 5.0 0.00 0.00 0.00 75 1011.4
20260507081434 45 351 2.0 4.0 0.00 0.00 0.00 75 1011.4
20260507081155 46 26 2.0 4.0 0.00 0.00 0.00 75 1011.4
20260507080433 46 12 2.0 4.0 0.00 0.00 0.00 75 1011.4
20260507075933 46 358 2.0 7.0 0.00 0.00 0.00 75 1011.4
20260507075921 46 358 2.0 7.0 0.00 0.00 0.00 75 1011.4
20260507074931 46 30 2.0 3.0 0.00 0.00 0.00 75 1011.4
20260507074655 46 10 2.0 3.0 0.00 0.00 0.00 75 1011.4
20260507073926 46 350 1.0 3.0 0.00 0.00 0.00 75 1011.4
20260507073419 46 29 2.0 4.0 0.00 0.00 0.00 75 1011.4
20260507073136 47 25 2.0 4.0 0.00 0.00 0.00 75 1011.4
20260507072407 47 357 1.0 4.0 0.00 0.00 0.00 75 1011.4
20260507072125 47 353 2.0 4.0 0.00 0.00 0.00 75 1011.3
20260507071355 47 5 2.0 4.0 0.00 0.00 0.00 74 1011.3
20260507070849 47 5 1.0 3.0 0.00 0.00 0.00 74 1011.4
20260507070343 47 351 1.0 3.0 0.00 0.00 0.00 74 1011.4
20260507065837 47 0 1.0 3.0 0.00 0.00 0.00 74 1011.4
20260507065331 47 353 1.0 3.0 0.00 0.00 0.00 74 1011.4
20260507064824 47 346 1.0 3.0 0.00 0.00 0.00 74 1011.5
20260507064537 48 346 1.0 3.0 0.00 0.00 0.00 73 1011.5
20260507063816 48 23 1.0 3.0 0.00 0.00 0.00 73 1011.6
20260507063316 48 331 1.0 3.0 0.00 0.00 0.00 73 1011.6
20260507062817 48 325 1.0 4.0 0.00 0.00 0.00 72 1011.7
20260507062318 48 17 1.0 4.0 0.00 0.00 0.00 72 1011.7
20260507061815 48 308 2.0 4.0 0.00 0.00 0.00 72 1011.6
20260507061314 48 337 2.0 4.0 0.00 0.00 0.00 72 1011.7
20260507060813 48 352 1.0 4.0 0.00 0.00 0.00 72 1011.6
20260507060314 49 26 1.0 4.0 0.00 0.00 0.00 72 1011.6
20260507055811 49 348 2.0 6.0 0.00 0.00 0.00 72 1011.6
20260507055312 49 303 2.0 6.0 0.00 0.00 0.00 71 1011.7
20260507054811 49 322 1.0 4.0 0.00 0.00 0.00 72 1011.7
20260507054312 49 11 1.0 4.0 0.00 0.00 0.00 72 1011.7
20260507053811 49 11 2.0 4.0 0.00 0.00 0.00 72 1011.7
20260507053312 49 337 2.0 6.0 0.00 0.00 0.00 72 1011.7
20260507052811 49 330 2.0 6.0 0.00 0.00 0.00 72 1011.7
20260507052309 49 10 1.0 4.0 0.00 0.00 0.00 72 1011.7
20260507051807 49 307 1.0 4.0 0.00 0.00 0.00 73 1011.7
20260507051307 49 332 1.0 4.0 0.00 0.00 0.00 72 1011.5
20260507050801 49 7 1.0 4.0 0.00 0.00 0.00 72 1011.5
20260507050255 50 308 1.0 4.0 0.00 0.00 0.00 72 1011.6
20260507045749 50 315 1.0 3.0 0.00 0.00 0.00 71 1011.7
20260507045243 50 329 1.0 5.0 0.00 0.00 0.00 70 1011.7
20260507044737 51 345 1.0 5.0 0.00 0.00 0.00 70 1011.8
20260507044230 51 310 1.0 4.0 0.00 0.00 0.00 69 1011.8
20260507043725 51 294 1.0 4.0 0.00 0.00 0.00 69 1011.8
20260507043221 51 345 1.0 4.0 0.00 0.00 0.00 69 1011.8
20260507042712 51 349 2.0 4.0 0.00 0.00 0.00 69 1011.7
20260507042206 51 266 1.0 5.0 0.00 0.00 0.00 69 1011.7
20260507041701 51 340 1.0 5.0 0.00 0.00 0.00 70 1011.7
20260507041155 51 323 1.0 4.0 0.00 0.00 0.00 70 1011.7
20260507040649 51 270 1.0 3.0 0.00 0.00 0.00 70 1011.7
20260507040409 51 294 1.0 3.0 0.00 0.00 0.00 70 1011.7
20260507035637 51 269 0.0 2.0 0.00 0.00 0.00 70 1011.7
20260507035131 51 257 0.0 2.0 0.00 0.00 0.00 69 1011.7
20260507034624 51 257 0.0 2.0 0.00 0.00 0.00 69 1011.7
20260507034118 51 257 0.0 2.0 0.00 0.00 0.00 68 1011.7
20260507033613 51 271 0.0 2.0 0.00 0.00 0.00 68 1011.7
20260507033106 51 308 0.0 2.0 0.00 0.00 0.00 68 1011.6
20260507032601 51 292 0.0 2.0 0.00 0.00 0.00 68 1011.6
20260507032055 52 292 0.0 3.0 0.00 0.00 0.00 68 1011.6
20260507031549 52 294 0.0 3.0 0.00 0.00 0.00 68 1011.6
20260507031042 52 255 0.0 4.0 0.00 0.00 0.00 67 1011.6
20260507030805 52 330 0.0 4.0 0.00 0.00 0.00 67 1011.6
20260507030030 52 326 0.0 2.0 0.00 0.00 0.00 68 1011.7
20260507025524 52 301 1.0 3.0 0.00 0.00 0.00 68 1011.7
20260507025019 53 300 1.0 3.0 0.00 0.00 0.00 68 1011.7
20260507024742 53 290 1.0 2.0 0.00 0.00 0.00 68 1011.7
20260507024007 53 313 0.0 2.0 0.00 0.00 0.00 68 1011.6
20260507023502 53 47 0.0 2.0 0.00 0.00 0.00 68 1011.6
20260507022954 52 329 0.0 2.0 0.00 0.00 0.00 68 1011.6
20260507022449 52 287 0.0 2.0 0.00 0.00 0.00 68 1011.6
20260507021943 52 317 0.0 2.0 0.00 0.00 0.00 69 1011.6
20260507021438 53 285 0.0 2.0 0.00 0.00 0.00 69 1011.6
20260507020930 53 280 0.0 2.0 0.00 0.00 0.00 68 1011.5
20260507020649 53 266 0.0 2.0 0.00 0.00 0.00 68 1011.5
20260507015919 53 339 0.0 2.0 0.00 0.00 0.00 67 1011.4
20260507015412 53 325 0.0 2.0 0.00 0.00 0.00 67 1011.3
20260507015134 53 335 0.0 2.0 0.00 0.00 0.00 66 1011.3
20260507014400 53 318 0.0 2.0 0.00 0.00 0.00 66 1011.3
20260507014119 54 318 1.0 3.0 0.00 0.00 0.00 66 1011.2
20260507013349 54 293 1.0 3.0 0.00 0.00 0.00 66 1010.9
20260507012842 54 314 1.0 2.0 0.00 0.00 0.00 66 1011.0
20260507012601 54 313 1.0 2.0 0.00 0.00 0.00 66 1010.9
20260507011831 54 332 1.0 2.0 0.00 0.00 0.00 66 1010.8
20260507011326 54 323 1.0 2.0 0.00 0.00 0.00 66 1010.8
20260507010826 54 323 1.0 3.0 0.00 0.00 0.00 66 1010.7
20260507010326 54 341 1.0 3.0 0.00 0.00 0.00 65 1010.8
20260507005825 54 332 1.0 3.0 0.00 0.00 0.00 65 1010.9
20260507005553 54 308 1.0 3.0 0.00 0.00 0.00 66 1010.8
20260507004822 54 300 1.0 2.0 0.00 0.00 0.00 66 1010.8
20260507004325 55 300 1.0 3.0 0.00 0.00 0.00 65 1010.8
20260507003822 54 313 0.0 3.0 0.00 0.00 0.00 65 1010.8
20260507003323 54 343 0.0 0.0 0.00 0.00 0.00 65 1010.8
20260507002822 55 343 0.0 0.0 0.00 0.00 0.00 65 1010.8
20260507002322 55 342 0.0 0.0 0.00 0.00 0.00 64 1010.6
20260507001823 55 343 0.0 0.0 0.00 0.00 0.00 64 1010.5
20260507001323 55 343 0.0 0.0 0.00 0.00 0.00 63 1010.4
20260507000821 56 343 0.0 1.0 0.00 0.00 0.00 63 1010.4
20260507000321 56 343 0.0 1.0 0.00 0.00 0.00 63 1010.3
20260507000310 56 343 0.0 0.0 0.00 0.00 0.00 62 1010.3
20260506235320 56 343 0.0 1.0 0.00 0.00 0.00 63 1010.3
20260506234819 56 343 0.0 2.0 0.00 0.00 0.00 62 1010.3
20260506234313 56 346 0.0 3.0 0.00 0.00 0.00 62 1010.1
20260506233814 56 348 1.0 3.0 0.00 0.00 0.00 62 1010.2
20260506233311 56 348 1.0 3.0 0.00 0.00 0.00 61 1010.2
20260506232813 56 330 1.0 3.0 0.00 0.00 0.00 61 1010.3
20260506232310 56 343 1.0 2.0 0.00 0.00 0.00 62 1010.2
20260506231809 56 349 1.0 2.0 0.00 0.00 0.00 62 1010.2
20260506231309 56 358 2.0 4.0 0.00 0.00 0.00 63 1010.0
20260506230808 56 0 2.0 9.0 0.00 0.00 0.00 63 1010.0
20260506230308 56 349 2.0 9.0 0.00 0.00 0.00 62 1010.0
20260506225808 57 19 2.0 5.0 0.00 0.00 0.00 61 1010.1
20260506225309 57 27 2.0 5.0 0.00 0.00 0.00 61 1010.0
20260506224808 57 19 2.0 4.0 0.00 0.00 0.00 61 1010.1
20260506224530 57 48 2.0 4.0 0.00 0.00 0.00 60 1010.1
20260506223809 58 27 2.0 4.0 0.00 0.00 0.00 60 1010.1
20260506223309 58 320 1.0 4.0 0.00 0.00 0.00 58 1010.0
20260506222806 58 353 1.0 2.0 0.00 0.00 0.00 61 1010.2
20260506222753 57 353 1.0 3.0 0.00 0.00 0.00 60 1010.2
20260506221802 57 6 1.0 3.0 0.00 0.00 0.00 59 1010.2
20260506221303 57 3 1.0 3.0 0.00 0.00 0.00 61 1010.3
20260506220803 57 335 1.0 3.0 0.00 0.00 0.00 60 1010.2
20260506220301 57 30 2.0 3.0 0.00 0.00 0.00 60 1010.2
20260506215802 57 30 2.0 3.0 0.00 0.00 0.00 60 1010.3
20260506215306 58 228 1.0 4.0 0.00 0.00 0.00 59 1010.5
20260506214802 58 228 1.0 5.0 0.00 0.00 0.00 59 1010.4
20260506214301 58 327 1.0 5.0 0.00 0.00 0.00 56 1010.4
20260506213802 58 352 1.0 3.0 0.00 0.00 0.00 57 1010.2
20260506213301 58 351 1.0 3.0 0.00 0.00 0.00 57 1010.2
20260506212803 58 38 2.0 4.0 0.00 0.00 0.00 57 1010.1
20260506212306 58 35 1.0 4.0 0.00 0.00 0.00 57 1010.1
20260506211802 58 357 1.0 4.0 0.00 0.00 0.00 57 1010.2
20260506211303 58 356 1.0 4.0 0.00 0.00 0.00 59 1010.2
20260506210801 58 23 1.0 3.0 0.00 0.00 0.00 58 1010.1
20260506210303 58 23 1.0 3.0 0.00 0.00 0.00 60 1010.0
20260506205759 58 308 1.0 3.0 0.00 0.00 0.00 59 1009.9
20260506205258 58 354 2.0 3.0 0.00 0.00 0.00 58 1010.0
20260506204759 58 10 2.0 5.0 0.00 0.00 0.00 59 1009.9
20260506204257 58 5 1.0 5.0 0.00 0.00 0.00 59 1009.9
20260506203759 58 359 1.0 3.0 0.00 0.00 0.00 58 1010.0
20260506203746 58 6 1.0 2.0 0.00 0.00 0.00 58 1010.0
20260506202757 58 351 0.0 2.0 0.00 0.00 0.00 60 1009.9
20260506202258 58 330 1.0 5.0 0.00 0.00 0.00 60 1010.0
20260506201759 58 297 2.0 5.0 0.00 0.00 0.00 58 1010.1
20260506201257 58 0 2.0 4.0 0.00 0.00 0.00 61 1010.2
20260506200758 58 3 1.0 2.0 0.00 0.00 0.00 62 1010.1
20260506200255 58 20 1.0 3.0 0.00 0.00 0.00 59 1010.0
20260506195755 58 333 1.0 3.0 0.00 0.00 0.00 59 1010.2
20260506195519 58 49 1.0 3.0 0.00 0.00 0.00 59 1010.1
20260506194753 57 6 1.0 4.0 0.00 0.00 0.00 60 1010.2
20260506194252 57 6 2.0 5.0 0.00 0.00 0.00 59 1010.1
20260506193751 57 11 2.0 6.0 0.00 0.00 0.00 58 1010.1
20260506193249 57 319 2.0 7.0 0.00 0.00 0.00 57 1010.2
20260506192748 58 16 2.0 7.0 0.00 0.00 0.00 55 1010.0
20260506192245 58 359 2.0 5.0 0.00 0.00 0.00 59 1010.0
20260506191746 58 10 3.0 5.0 0.00 0.00 0.00 58 1009.9
20260506191244 59 338 2.0 5.0 0.00 0.00 0.00 58 1009.8
20260506191002 59 12 1.0 5.0 0.00 0.00 0.00 60 1009.8
20260506190237 58 16 1.0 3.0 0.00 0.00 0.00 61 1009.8
20260506185732 58 16 2.0 3.0 0.00 0.00 0.00 59 1009.9
20260506185225 58 33 2.0 4.0 0.00 0.00 0.00 58 1009.9
20260506184720 57 18 2.0 5.0 0.00 0.00 0.00 59 1009.9
20260506184214 57 0 2.0 5.0 0.00 0.00 0.00 62 1009.9
20260506183708 57 57 2.0 7.0 0.00 0.00 0.00 61 1009.8
20260506183201 57 22 3.0 7.0 0.00 0.00 0.00 60 1009.9
20260506182656 57 36 3.0 7.0 0.00 0.00 0.00 59 1009.9
20260506182150 57 346 3.0 6.0 0.00 0.00 0.00 61 1009.8
20260506181644 57 333 2.0 5.0 0.00 0.00 0.00 60 1009.7
20260506181137 57 352 1.0 5.0 0.00 0.00 0.00 60 1009.8
20260506180633 57 12 3.0 9.0 0.00 0.00 0.00 61 1009.8
20260506180614 58 7 3.0 9.0 0.00 0.00 0.00 59 1009.8
20260506175844 58 297 3.0 6.0 0.00 0.00 0.00 59 1009.8
20260506175113 58 74 3.0 6.0 0.00 0.00 0.00 59 1009.9
20260506174608 58 56 3.0 6.0 0.00 0.00 0.00 60 1010.0
20260506174102 58 342 3.0 6.0 0.00 0.00 0.00 58 1010.0
20260506173600 59 3 2.0 4.0 0.00 0.00 0.00 60 1010.0
20260506173046 59 39 2.0 5.0 0.00 0.00 0.00 58 1010.1
20260506172540 59 17 2.0 5.0 0.00 0.00 0.00 59 1010.2
20260506172257 59 347 2.0 6.0 0.00 0.00 0.00 63 1010.2
20260506171528 58 13 2.0 6.0 0.00 0.00 0.00 62 1010.1
20260506171021 58 38 2.0 3.0 0.00 0.00 0.00 64 1010.0
20260506170516 58 20 1.0 3.0 0.00 0.00 0.00 60 1010.0
20260506170010 58 318 2.0 6.0 0.00 0.00 0.00 65 1010.2